When you browse on this site, cookies collect data to enhance your experience and personalize the content and advertising you see.
Visit our Privacy Policy to learn more. By continuing to use the site, you agree to this use of cookies and data.
  • In United Kingdom
  • List of Countries
  • For 7 days
  • Water Temperature
  • Satellite Maps
  • Weather Map
  • Weather Widgets
  • user-avatar
    Login

    Hourly Weather Ischgl

    Today, 20 July, Saturday

    Time Temperature Precipitation Wind Pressure Humidity
    00:00 +7°C° 0 mm 1 mps 576 mmHg 90%
    01:00 +7°C° 0 mm 1 mps 577 mmHg 90%
    02:00 +6°C° 0 mm 2 mps 576 mmHg 90%
    03:00 +6°C° 0 mm 2 mps 576 mmHg 91%
    04:00 +6°C° 0 mm 2 mps 576 mmHg 91%
    05:00 +7°C° 0 mm 2 mps 577 mmHg 88%
    06:00 +9°C° 0 mm 2 mps 578 mmHg 86%
    07:00 +10°C° 0 mm 2 mps 579 mmHg 83%
    08:00 +13°C° 0.1 mm 2 mps 579 mmHg 75%
    09:00 +14°C° 0.1 mm 2 mps 580 mmHg 66%
    10:00 +16°C° 0.1 mm 1 mps 581 mmHg 58%
    11:00 +16°C° 0.5 mm 1 mps 581 mmHg 57%
    12:00 +18°C° 0.5 mm 1 mps 581 mmHg 56%
    13:00 +18°C° 0.5 mm 1 mps 581 mmHg 55%
    14:00 +18°C° 1.4 mm 1 mps 581 mmHg 59%
    15:00 +16°C° 1.4 mm 1 mps 581 mmHg 62%
    16:00 +16°C° 1.4 mm 1 mps 581 mmHg 66%
    17:00 +15°C° 1.5 mm 1 mps 581 mmHg 71%
    18:00 +13°C° 1.5 mm 0 mps 580 mmHg 76%
    19:00 +12°C° 1.5 mm 0 mps 580 mmHg 82%
    20:00 +11°C° 0.2 mm 0 mps 580 mmHg 83%
    21:00 +10°C° 0.2 mm 0 mps 579 mmHg 84%
    22:00 +8°C° 0.2 mm 0 mps 579 mmHg 85%
    23:00 +8°C° 0 mm 0 mps 579 mmHg 85%

    Tomorrow, 21 July, Sunday

    Time Temperature Precipitation Wind Pressure Humidity
    00:00 +8°C° 0 mm 0 mps 579 mmHg 85%
    01:00 +9°C° 0 mm 1 mps 580 mmHg 86%
    02:00 +9°C° 0 mm 1 mps 579 mmHg 86%
    03:00 +9°C° 0 mm 1 mps 579 mmHg 86%
    04:00 +9°C° 0 mm 1 mps 579 mmHg 87%
    05:00 +10°C° 0 mm 1 mps 579 mmHg 83%
    06:00 +11°C° 0 mm 1 mps 580 mmHg 80%
    07:00 +12°C° 0 mm 1 mps 581 mmHg 76%
    08:00 +13°C° 0.3 mm 1 mps 582 mmHg 74%
    09:00 +14°C° 0.3 mm 1 mps 582 mmHg 71%
    10:00 +15°C° 0.3 mm 2 mps 583 mmHg 68%
    11:00 +15°C° 0.6 mm 2 mps 583 mmHg 69%
    12:00 +16°C° 0.6 mm 2 mps 583 mmHg 70%
    13:00 +16°C° 0.6 mm 2 mps 583 mmHg 70%
    14:00 +16°C° 0.5 mm 2 mps 583 mmHg 70%
    15:00 +16°C° 0.5 mm 2 mps 583 mmHg 70%
    16:00 +16°C° 0.5 mm 2 mps 583 mmHg 70%
    17:00 +15°C° 0.1 mm 2 mps 583 mmHg 73%
    18:00 +14°C° 0.1 mm 2 mps 583 mmHg 77%
    19:00 +13°C° 0.1 mm 2 mps 582 mmHg 81%
    20:00 +12°C° 0 mm 1 mps 582 mmHg 85%
    21:00 +10°C° 0 mm 1 mps 581 mmHg 89%
    22:00 +7°C° 0 mm 0 mps 581 mmHg 93%
    23:00 +7°C° 0 mm 0 mps 581 mmHg 92%

    Day after tomorrow, 22 July, Monday

    Time Temperature Precipitation Wind Pressure Humidity
    00:00 +6°C° 0 mm 0 mps 580 mmHg 92%
    01:00 +6°C° 0 mm 0 mps 580 mmHg 91%
    02:00 +6°C° 0 mm 0 mps 580 mmHg 89%
    03:00 +6°C° 0 mm 0 mps 580 mmHg 88%
    04:00 +6°C° 0 mm 0 mps 580 mmHg 86%
    05:00 +7°C° 0 mm 0 mps 581 mmHg 80%
    06:00 +9°C° 0 mm 0 mps 582 mmHg 75%
    07:00 +11°C° 0 mm 0 mps 583 mmHg 69%
    08:00 +13°C° 0 mm 0 mps 584 mmHg 64%
    09:00 +15°C° 0 mm 1 mps 585 mmHg 59%
    10:00 +18°C° 0 mm 1 mps 586 mmHg 54%
    11:00 +19°C° 0 mm 1 mps 586 mmHg 49%
    12:00 +20°C° 0 mm 1 mps 586 mmHg 44%
    13:00 +20°C° 0 mm 2 mps 586 mmHg 40%
    14:00 +20°C° 0 mm 2 mps 586 mmHg 41%
    15:00 +20°C° 0 mm 2 mps 586 mmHg 41%
    16:00 +20°C° 0 mm 2 mps 586 mmHg 42%
    17:00 +19°C° 0 mm 2 mps 585 mmHg 51%
    18:00 +17°C° 0 mm 2 mps 585 mmHg 61%
    19:00 +16°C° 0 mm 2 mps 584 mmHg 70%
    20:00 +14°C° 0 mm 1 mps 583 mmHg 77%
    21:00 +12°C° 0 mm 1 mps 582 mmHg 83%
    22:00 +9°C° 0 mm 0 mps 581 mmHg 90%
    23:00 +8°C° 0 mm 0 mps 581 mmHg 90%

    23 July, Tuesday

    Time Temperature Precipitation Wind Pressure Humidity
    00:00 +8°C° 0 mm 0 mps 581 mmHg 90%
    01:00 +8°C° 0 mm 0 mps 581 mmHg 90%
    02:00 +8°C° 0 mm 0 mps 580 mmHg 89%
    03:00 +7°C° 0 mm 0 mps 580 mmHg 88%
    04:00 +7°C° 0 mm 0 mps 580 mmHg 87%
    05:00 +9°C° 0 mm 0 mps 581 mmHg 79%
    06:00 +11°C° 0 mm 0 mps 582 mmHg 71%
    07:00 +13°C° 0 mm 0 mps 583 mmHg 63%
    08:00 +15°C° 0 mm 0 mps 584 mmHg 54%
    09:00 +19°C° 0 mm 1 mps 584 mmHg 45%
    10:00 +21°C° 0 mm 1 mps 585 mmHg 35%
    11:00 +21°C° 0 mm 1 mps 585 mmHg 34%
    12:00 +22°C° 0 mm 1 mps 585 mmHg 33%
    13:00 +23°C° 0 mm 2 mps 585 mmHg 31%
    14:00 +23°C° 0 mm 2 mps 585 mmHg 32%
    15:00 +23°C° 0 mm 2 mps 585 mmHg 33%
    16:00 +23°C° 0 mm 2 mps 585 mmHg 34%
    17:00 +21°C° 0 mm 2 mps 584 mmHg 46%
    18:00 +19°C° 0 mm 2 mps 584 mmHg 57%
    19:00 +19°C° 0 mm 1 mps 583 mmHg 68%
    20:00 +15°C° 0 mm 1 mps 582 mmHg 76%
    21:00 +13°C° 0 mm 1 mps 581 mmHg 83%
    22:00 +10°C° 0 mm 0 mps 580 mmHg 91%
    23:00 +10°C° 0 mm 0 mps 580 mmHg 91%

    24 July, Wednesday

    Time Temperature Precipitation Wind Pressure Humidity
    00:00 +10°C° 0 mm 0 mps 580 mmHg 91%
    01:00 +10°C° 0 mm 0 mps 580 mmHg 91%
    02:00 +9°C° 0 mm 0 mps 579 mmHg 91%
    03:00 +9°C° 0 mm 0 mps 579 mmHg 91%
    04:00 +9°C° 0 mm 0 mps 579 mmHg 90%
    05:00 +11°C° 0 mm 0 mps 580 mmHg 85%
    06:00 +13°C° 0 mm 0 mps 581 mmHg 79%
    07:00 +15°C° 0 mm 0 mps 582 mmHg 73%
    08:00 +16°C° 0 mm 0 mps 583 mmHg 64%
    09:00 +20°C° 0 mm 1 mps 583 mmHg 54%
    10:00 +21°C° 0 mm 1 mps 584 mmHg 44%
    11:00 +22°C° 0 mm 1 mps 584 mmHg 42%
    12:00 +23°C° 0 mm 1 mps 584 mmHg 39%
    13:00 +24°C° 0 mm 1 mps 585 mmHg 37%
    14:00 +24°C° 0.1 mm 2 mps 584 mmHg 39%
    15:00 +24°C° 0.1 mm 2 mps 584 mmHg 41%
    16:00 +23°C° 0.1 mm 2 mps 584 mmHg 42%
    17:00 +21°C° 0.7 mm 2 mps 583 mmHg 55%
    18:00 +20°C° 0.7 mm 1 mps 582 mmHg 67%
    19:00 +18°C° 0.7 mm 1 mps 582 mmHg 80%
    20:00 +16°C° 0.2 mm 1 mps 581 mmHg 83%
    21:00 +14°C° 0.2 mm 0 mps 581 mmHg 85%
    22:00 +13°C° 0.2 mm 0 mps 581 mmHg 88%
    23:00 +12°C° 0.5 mm 0 mps 580 mmHg 89%

    25 July, Thursday

    Time Temperature Precipitation Wind Pressure Humidity
    00:00 +12°C° 0.5 mm 0 mps 580 mmHg 90%
    01:00 +11°C° 0.5 mm 0 mps 580 mmHg 91%
    02:00 +11°C° 0.5 mm 0 mps 580 mmHg 90%
    03:00 +12°C° 0.5 mm 1 mps 580 mmHg 89%
    04:00 +12°C° 0.5 mm 1 mps 580 mmHg 89%
    05:00 +13°C° 0 mm 1 mps 580 mmHg 86%
    06:00 +14°C° 0 mm 1 mps 581 mmHg 83%
    07:00 +15°C° 0 mm 1 mps 581 mmHg 80%
    08:00 +18°C° 0.3 mm 1 mps 582 mmHg 73%
    09:00 +20°C° 0.3 mm 1 mps 583 mmHg 66%
    10:00 +21°C° 0.3 mm 1 mps 584 mmHg 59%
    11:00 +21°C° 1.8 mm 1 mps 583 mmHg 58%
    12:00 +22°C° 1.8 mm 1 mps 583 mmHg 57%
    13:00 +22°C° 1.8 mm 1 mps 583 mmHg 56%
    14:00 +21°C° 2 mm 1 mps 583 mmHg 60%
    15:00 +20°C° 2 mm 1 mps 582 mmHg 63%
    16:00 +20°C° 2 mm 1 mps 582 mmHg 67%
    17:00 +19°C° 1 mm 1 mps 581 mmHg 72%
    18:00 +18°C° 1 mm 1 mps 581 mmHg 76%
    19:00 +18°C° 1 mm 1 mps 581 mmHg 81%
    20:00 +15°C° 0.1 mm 1 mps 580 mmHg 83%
    21:00 +14°C° 0.1 mm 1 mps 580 mmHg 85%
    22:00 +13°C° 0.1 mm 1 mps 579 mmHg 87%
    23:00 +12°C° 0.2 mm 1 mps 579 mmHg 88%
    Show more